[Date Prev][Date Next][Thread Prev][Thread Next] - [Date Index][Thread Index][Author Index]

2 Line ISS Keps 11-13



ISS
1 25544U 98067A   01317.13802668  .00073284  00000-0  86028-3 0  7186
2 25544  51.6410  59.6248 0009364 326.4665 101.7691 15.60758953170324


----
Via the sarex mailing list at AMSAT.ORG courtesy of AMSAT-NA.
To unsubscribe, send "unsubscribe sarex" to Majordomo@amsat.org



AMSAT Top AMSAT Home